Location: Izdebno
(52.6670°N, 16.2170°E)
Time: 04:46:49
(UTC+02:00)

Transit 4A - Pass Details

Date: 25 February 2024
Orbit: 871 x 972 km, 66.8° (Epoch: 22 April)

Event Time Altitude Azimuth Distance (km) Brightness Sun altitude
Rises 06:44:52 0° 308° (NW) 3,542 10.4 -1.9°
Reaches altitude 10° 06:47:58 10° 323° (NW) 2,583 9.8 -1.4°
Maximum altitude 06:52:41 24° 15° (NNE) 1,781 9.5 -0.7°
Drops below altitude 10° 06:57:19 10° 68° (ENE) 2,539 11.1 -0.1°
Sets 07:00:19 0° 83° (E) 3,468 12.4 0.4°
